STARLINK-32787, 62809

Orbit data source: Space-Track

STARLINK-32787, 62809 is a payload satellite owned by SpaceX/Seattle (US) in LEO that was launched on Fri, 24 Jan 2025 UTC via an FALCON 9 launch vehicle from the Air Force Western Test Range (AFWTR). Payload-class satellites include a variety of spacecraft equipped with specific instruments for various scientific and technological missions. These include communications satellites like Starlink; space stations such as the ISS; scientific satellites like the Hubble; Earth observation satellites from companies like Planet Labs, Umbra, and HawkEye 360; GPS; miniature CubeSats for education and research; and military/defense satellites.

Loading next visibility...
Identifier
62809, 2025-018D
Orbit
LEO
Last TLE update
13 hours ago
Origin
Manufacturer
SpaceX/Seattle
Mission
Operational Commercial Communications
Bus & Motor
STARLINK V2M, Unknown motor
Mass
730 kg wet, ~700 kg dry
Launch date (UTC)
2025-01-24 (5 months ago)
Launch vehicle
FALCON 9
Launch site
Air Force Western Test Range (AFWTR)
Object type
Payload
Rocket body
Debris
Shape & HBR
Box + 2 Pan, 29 m
Radar Cross Section
33.884 m², Large (>1 m²)

Expand to show TLE details & history

TLE from 13 hours ago
0 STARLINK-32787
1 62809U 25018D   25188.78263008  .00017001  00000-0  58471-3 0  9996
2 62809  53.1580   7.0544 0001015  70.8992 289.2118 15.30205720 25677
Epoch: 2025-07-07T18:46Z
TLE epoch observation values (Epoch: 2025-07-07T18:46:59.238Z)
Latitude
-0.00009°
Longitude
159.32048°
Altitude
475.869 km
Speed
7.629 km/s
True Right ascension
00h 28m 13s
True Declination
0° 00' 00"
Sunlit
Object was in daylight at epoch
Visualization orbit readout
Latitude
53.18138°
Longitude
-107.64011°
Altitude
481.038 km
Speed
7.632 km/s
Apparent Right ascension
07h 17m 52s
Apparent Declination
8° 54' 15"
Sunlit
Object is in daylight
Visualization observer readout
Local Sidereal Time
19:49:21
Azimuth
10.271° NNE
Elevation
-40.639°
Doppler factor
1
Orbital elements
Apogee altitude
476.15 km
Perigee altitude
474.759 km
Semi-major axis
6,853.592 km
Eccentricity
0.0001
Inclination
53.158°
RAAN
7.0544°
Arg. of periapsis
70.8992°
True anomaly
Unknown
Mean anomaly
289.2118°
Eccentric anomaly
Unknown
Mean motion
3.8253 °/min
Orbital period
94.11 mins
BSTAR
0.00058471
Loading maneuver chart data...
Loading SW <> Apogee altitude chart data...
Loading historical data...
Loading historical data...
Loading historical data...
Loading historical data...
Loading historical data...
Loading historical data...
Loading historical data...

STARLINK-32787 Visibility forecast

Observer location: undefined°, undefined°

Span
Click to sort rows by Start time (UTC) header in descending order
Start Az.
Max El. time (UTC)
Max El. Az.
Max El.
End time (UTC)
End Az.
5 mins2025-07-08 13:44:45.239Z186.701° SSW2025-07-08 13:47:45.239Z125.26° SE24.009°2025-07-08 13:49:45.239Z82.068° E
5 mins2025-07-08 15:23:45.239Z277.095° WNW2025-07-08 15:25:45.239Z343.803° N30.357°2025-07-08 15:28:45.239Z36.592° NE
4 mins2025-07-08 20:20:45.239Z349.162° N2025-07-08 20:22:45.239Z44.126° NE24.531°2025-07-08 20:24:45.239Z83.566° E
4 mins2025-07-08 21:58:45.239Z276.613° WNW2025-07-08 21:59:45.239Z248.037° W31.295°2025-07-08 22:02:45.239Z162.651° S
|